NOAA 16 DEB, 42359

Orbit data source: Space-Track

NOAA 16 DEB, 42359 is space debris in SSO originally from a launch on Thu, 21 Sep 2000 UTC launched from the Air Force Western Test Range (AFWTR). Debris objects in space refer to the collection of defunct objects orbiting the Earth. Examples of debris include non-operational satellites, rocket bodies, and fragments generated from explosions, collisions, or faulty payload assembly.

Loading next visibility...
Identifier
42359, 2000-055RB
Orbit
SSO
Country
Flag of USUS
Related business
Manufacturer
Unknown
Mission
Spacecraft
Bus & Motor
Unknown
Mass
Unknown
Launch date (UTC)
2000-09-21 (25 years ago)
Launch vehicle
Unknown
Launch site
Air Force Western Test Range (AFWTR)
Object type
Payload
Rocket body
Debris
Shape & HBR
Unknown shape, 0.1 m
Radar Cross Section
Small (<0.1 m²)

Expand to show TLE details & history
Last TLE update: 1 week ago

TLE from 1 week ago
0 NOAA 16 DEB
1 42359U 00055RB  26024.69605506  .00012327  00000-0  35202-2 0  9993
2 42359  98.9632 195.1226 0016376 246.6174 113.3294 14.45200103509671
Epoch: 2026-01-24T16:42Z
TLE epoch observation values (Epoch: 2026-01-24T16:42:19.157Z)
Latitude
0.00006°
Longitude
-179.47404°
Altitude
748.944 km
Speed
7.478 km/s
True Right ascension
13h 00m 29s
True Declination
0° 00' 00"
Sunlit
Object was in daylight at epoch
Visualization orbit readout
Latitude
Unknown
Longitude
Unknown
Altitude
Unknown
Speed
Unknown
Apparent Right ascension
Unknown
Apparent Declination
Unknown
Sunlit
N/A
Visualization observer readout
Local Sidereal Time
10:18:29
Azimuth
Unknown
Elevation
Unknown
Doppler factor
Unknown
Orbital elements
Apogee altitude
750.161 km
Perigee altitude
726.852 km
Semi-major axis
7,116.643 km
Eccentricity
0.00164
Inclination
98.9632°
RAAN
195.1226°
Arg. of periapsis
246.6174°
True anomaly
113.50157°
Mean anomaly
113.3294°
Eccentric anomaly
113.4155°
Mean motion
3.61518 °/min
Orbital period
99.58 mins
BSTAR
0.0035202
Loading maneuver chart data...
Computing Atmospheric mass density...
Loading historical data...
Loading historical data...
Loading historical data...
Loading historical data...
Loading historical data...
Loading historical data...
Loading historical data...

Documentation

Showing up to 5 results
|